Find Starlink 11233

NORAD ID: 61061 Int'l Des: 2024-164 Owner: SPXS Country: US Constellation: starlink operational
LEOCIRCULAR

Live-Position

3D-Globus wird geladen...

Über Starlink 11233

Beschreibung wird geladen...

Nächste Überflüge

Passes for default location (London). Set your location on the main map for personalized predictions.

Höhenverlauf

Loading altitude history...

Zweizeiliger Elementsatz

1 61061U 24164M 26126.98872924 -.00002773 00000-0 -18054-4 0 9990
2 61061 53.1565 24.0016 0000570 68.2007 291.9072 15.69697231 94573
Epoch: 6. Mai 2026 • Age: 16 hours

Aktueller Status

Höhe 378.5 km
Geschwindigkeit 7.68 km/s
Subsatellitenpunkt -52.89°S, 167.63°W
Startdatum 13. Sept. 2024
Alter 1.6 years
Typ internet

Technische Details

Klassifizierung Payload
Masse 960.00 kg
Trockenmasse 910.00 kg
Gesamtmasse 960.00 kg
Länge 0.30 m
Durchmesser 4.10 m
Spannweite 29.00 m
Form Box + pan
Hersteller SPXS
Bus-Typ Starlink V2MD
Phasenstatus In Orbit
Besitzer/Staat SPXS/US

Most Searched